Weather History for Bullhead City, AZ

Change the Weather History Date:

Sunday, March 23, 2014

  Actual Average Record
Temperature  
Mean Temperature 70 °F -  
Max Temperature 84 °F 79 °F 96 °F (1990)
Min Temperature 57 °F 56 °F 42 °F (2011)
Cooling Degree Days 6    
Growing Degree Days 20 (Base 50)    
Moisture  
Dew Point 20 °F    
Average Humidity 15    
Maximum Humidity 31    
Minimum Humidity 8    
Precipitation  
Precipitation 0.00 in - - ()
Sea Level Pressure  
Sea Level Pressure 30.00 in    
Wind  
Wind Speed 5 mph (NNE)    
Max Wind Speed 21 mph    
Max Gust Speed 24 mph    
Visibility 10 miles    
Events      
Averages and records for this station are not official NWS values.
T = Trace of Precipitation, MM = Missing Value Source: NWS Daily Summary

Daily Weather History Graph

Daily Weather History Graph

Search for Another Location

Airport:

Trip Planner

Search our weather history database for the weather conditions in past years. The results will help you decide how hot, cold, wet, or windy it might be!

Date:

Astronomy

Mar. 23, 2014 Rise Set
Actual Time 6:37 AM MST 6:52 PM MST
Civil Twilight 6:12 AM MST 7:17 PM MST
Nautical Twilight 5:42 AM MST 7:47 PM MST
Astronomical Twilight 5:12 AM MST 8:17 PM MST
Moon 1:02 AM MST (3/23) 11:33 AM MST (3/23)
Length of Visible Light 13h 05m
Length of Day
12h 14m
Waning Gibbous, 53% of the Moon is Illuminated
Mar 23
Waning Gibbous
Mar 23
Last Quarter
Mar 30
New
Apr 7
First Quarter
Apr 15
Full

Hourly Weather History & Observations

Time (MST) Temp. Dew Point Humidity Pressure Visibility Wind Dir Wind Speed Gust Speed Precip Events Conditions
12:15 AM 66.2 °F 23.0 °F 19% 29.97 in 10.0 mi East 5.8 mph - N/A   Clear
12:35 AM 66.2 °F 23.0 °F 19% 29.97 in 10.0 mi Calm Calm - N/A   Clear
12:55 AM 64.4 °F 23.0 °F 21% 29.98 in 10.0 mi East 4.6 mph - N/A   Clear
1:15 AM 62.6 °F 23.0 °F 22% 29.98 in 10.0 mi Calm Calm - N/A   Clear
1:35 AM 64.4 °F 23.0 °F 21% 29.98 in 10.0 mi Calm Calm - N/A   Clear
1:55 AM 64.4 °F 24.8 °F 22% 29.99 in 10.0 mi Calm Calm - N/A   Clear
2:15 AM 62.6 °F 24.8 °F 24% 29.99 in 10.0 mi Calm Calm - N/A   Clear
2:35 AM 59.0 °F 24.8 °F 27% 29.99 in 10.0 mi Calm Calm - N/A   Clear
2:55 AM 59.0 °F 24.8 °F 27% 29.99 in 10.0 mi Calm Calm - N/A   Clear
3:15 AM 59.0 °F 26.6 °F 29% 30.00 in 10.0 mi North 4.6 mph - N/A   Clear
3:35 AM 59.0 °F 24.8 °F 27% 30.00 in 10.0 mi Calm Calm - N/A   Clear
3:55 AM 62.6 °F 24.8 °F 24% 30.00 in 10.0 mi Calm Calm - N/A   Clear
4:15 AM 60.8 °F 28.4 °F 29% 30.00 in 10.0 mi North 4.6 mph - N/A   Clear
4:35 AM 59.0 °F 28.4 °F 31% 30.01 in 10.0 mi NNE 3.5 mph - N/A   Clear
4:55 AM 57.2 °F 24.8 °F 29% 30.01 in 10.0 mi Calm Calm - N/A   Clear
5:15 AM 59.0 °F 24.8 °F 27% 30.02 in 10.0 mi Calm Calm - N/A   Clear
5:35 AM 59.0 °F 28.4 °F 31% 30.02 in 10.0 mi Calm Calm - N/A   Clear
5:55 AM 59.0 °F 26.6 °F 29% 30.03 in 10.0 mi SSW 3.5 mph - N/A   Clear
6:15 AM 59.0 °F 26.6 °F 29% 30.03 in 10.0 mi Calm Calm - N/A   Clear
6:35 AM 62.6 °F 21.2 °F 20% 30.04 in 10.0 mi Calm Calm - N/A   Clear
6:55 AM 60.8 °F 24.8 °F 25% 30.05 in 10.0 mi Calm Calm - N/A   Clear
7:15 AM 62.6 °F 23.0 °F 22% 30.06 in 10.0 mi NNE 3.5 mph - N/A   Clear
7:35 AM 64.4 °F 19.4 °F 18% 30.06 in 10.0 mi NNE 9.2 mph - N/A   Clear
7:55 AM 66.2 °F 17.6 °F 15% 30.06 in 10.0 mi NNE 15.0 mph - N/A   Clear
8:15 AM 66.2 °F 17.6 °F 15% 30.07 in 10.0 mi NNE 13.8 mph - N/A   Clear
8:35 AM 68.0 °F 17.6 °F 15% 30.07 in 10.0 mi NNE 13.8 mph - N/A   Clear
8:55 AM 68.0 °F 17.6 °F 15% 30.07 in 10.0 mi NNE 16.1 mph 19.6 mph N/A   Clear
9:15 AM 69.8 °F 15.8 °F 13% 30.07 in 10.0 mi NNE 18.4 mph 24.2 mph N/A   Clear
9:35 AM 71.6 °F 15.8 °F 12% 30.07 in 10.0 mi NNE 18.4 mph 24.2 mph N/A   Clear
9:55 AM 71.6 °F 15.8 °F 12% 30.07 in 10.0 mi NNE 17.3 mph - N/A   Clear
10:15 AM 73.4 °F 15.8 °F 11% 30.07 in 10.0 mi NNE 20.7 mph 24.2 mph N/A   Clear
10:35 AM 73.4 °F 15.8 °F 11% 30.07 in 10.0 mi North 19.6 mph - N/A   Clear
10:55 AM 75.2 °F 15.8 °F 11% 30.07 in 10.0 mi NNE 18.4 mph - N/A   Clear
11:15 AM 75.2 °F 17.6 °F 11% 30.07 in 10.0 mi North 15.0 mph - N/A   Clear
11:35 AM 75.2 °F 17.6 °F 11% 30.06 in 10.0 mi North 16.1 mph - N/A   Clear
11:55 AM 77.0 °F 17.6 °F 11% 30.06 in 10.0 mi North 16.1 mph - N/A   Clear
12:15 PM 78.8 °F 19.4 °F 11% 30.05 in 10.0 mi North 15.0 mph - N/A   Clear
12:35 PM 78.8 °F 19.4 °F 11% 30.04 in 10.0 mi NNW 13.8 mph - N/A   Clear
12:55 PM 80.6 °F 19.4 °F 10% 30.03 in 10.0 mi NNW 11.5 mph - N/A   Clear
1:15 PM 80.6 °F 23.0 °F 12% 30.02 in 10.0 mi NNW 8.1 mph - N/A   Clear
1:35 PM 82.4 °F 23.0 °F 11% 30.01 in 10.0 mi NNW 6.9 mph - N/A   Clear
1:55 PM 82.4 °F 23.0 °F 11% 30.00 in 10.0 mi WNW 4.6 mph - N/A   Clear
2:15 PM 84.2 °F 23.0 °F 11% 29.99 in 10.0 mi Calm Calm - N/A   Clear
2:35 PM 84.2 °F 19.4 °F 9% 29.98 in 10.0 mi West 4.6 mph - N/A   Clear
2:55 PM 84.2 °F 19.4 °F 9% 29.97 in 10.0 mi Calm Calm - N/A   Clear
3:15 PM 84.2 °F 17.6 °F 8% 29.96 in 10.0 mi South 6.9 mph - N/A   Clear
3:35 PM 84.2 °F 19.4 °F 9% 29.96 in 10.0 mi Calm Calm - N/A   Clear
3:55 PM 84.2 °F 19.4 °F 9% 29.95 in 10.0 mi NNW 3.5 mph - N/A   Clear
4:15 PM 84.2 °F 19.4 °F 9% 29.94 in 10.0 mi SW 4.6 mph - N/A   Clear
4:35 PM 84.2 °F 17.6 °F 8% 29.94 in 10.0 mi SSE 4.6 mph - N/A   Clear
4:55 PM 84.2 °F 17.6 °F 8% 29.94 in 10.0 mi Calm Calm - N/A   Clear
5:15 PM 84.2 °F 15.8 °F 8% 29.93 in 10.0 mi Calm Calm - N/A   Clear
5:35 PM 84.2 °F 15.8 °F 8% 29.93 in 10.0 mi SE 4.6 mph - N/A   Clear
5:55 PM 84.2 °F 15.8 °F 8% 29.93 in 10.0 mi Calm Calm - N/A   Clear
6:15 PM 84.2 °F 15.8 °F 8% 29.94 in 10.0 mi Calm Calm - N/A   Clear
6:35 PM 82.4 °F 15.8 °F 8% 29.94 in 10.0 mi Calm Calm - N/A   Clear
6:55 PM 82.4 °F 17.6 °F 9% 29.94 in 10.0 mi Calm Calm - N/A   Clear
7:15 PM 80.6 °F 19.4 °F 10% 29.94 in 10.0 mi Calm Calm - N/A   Clear
7:35 PM 78.8 °F 17.6 °F 10% 29.95 in 10.0 mi Calm Calm - N/A   Clear
7:55 PM 75.2 °F 19.4 °F 12% 29.95 in 10.0 mi Calm Calm - N/A   Clear
8:15 PM 75.2 °F 17.6 °F 11% 29.96 in 10.0 mi East 5.8 mph - N/A   Clear
8:35 PM 75.2 °F 15.8 °F 11% 29.97 in 10.0 mi East 6.9 mph - N/A   Clear
8:55 PM 75.2 °F 17.6 °F 11% 29.97 in 10.0 mi Calm Calm - N/A   Clear
9:15 PM 75.2 °F 15.8 °F 11% 29.98 in 10.0 mi Calm Calm - N/A   Clear
9:35 PM 73.4 °F 17.6 °F 12% 29.98 in 10.0 mi Calm Calm - N/A   Clear
9:55 PM 71.6 °F 17.6 °F 13% 29.99 in 10.0 mi Calm Calm - N/A   Clear
10:15 PM 71.6 °F 17.6 °F 13% 29.99 in 10.0 mi Calm Calm - N/A   Clear
10:35 PM 71.6 °F 17.6 °F 13% 30.00 in 10.0 mi East 8.1 mph - N/A   Clear
10:55 PM 71.6 °F 17.6 °F 13% 29.99 in 10.0 mi East 6.9 mph - N/A   Clear
11:15 PM 69.8 °F 17.6 °F 14% 29.99 in 10.0 mi ENE 6.9 mph - N/A   Clear
11:35 PM 69.8 °F 17.6 °F 14% 29.99 in 10.0 mi NNE 3.5 mph - N/A   Clear
11:55 PM 68.0 °F 17.6 °F 15% 29.99 in 10.0 mi Calm Calm - N/A   Clear